Other Public Products
Issued by NWS Charleston, SC

Current Version | Previous Version | Graphics & Text | Print | Product List | Glossary On
Versions: 1 2 3 4 5 6 7 8 9 10 11 12 13 14 15 16 17 18 19 20 21 22 23 24 25 26 27 28 29 30 31 32 33 34 35 36 37 38 39 40 41 42 43 44 45 46 47 48 49 50
738 FPUS82 KCHS 201812 OPUCHS TEST...KCHS/KSAV Gateway Observations...TEST National Weather Service Charleston SC 100 PM EST TUE FEB 20 2018 NOTE: "fair" indicates few or no clouds below 12,000 feet with no significant weather and/or obstructions to visibility. SCZ050-WAZ558-NCZ071-TXZ119-213-PAZ071-DCZ001-FLZ074-172-MI076- NYZ176-178-MAZ016-IL014-TNZ027-NJZ106-GAZ044-MD014-201900- ...Gateway Observations for Charleston International... CITY SKY/WX TMP DP RH WIND PRES REMARKS Chas Airport PTSUNNY 79 64 60 S17 30.41F 6HR MIN TEMP: 59; 6HR MAX TEMP: 81; Seattle CLOUDY 32 20 61 S5 30.17S WCI 27 6HR MIN TEMP: 28; 6HR MAX TEMP: 32; Charlotte CLOUDY 67 64 90 S8 30.43F 6HR MIN TEMP: 55; 6HR MAX TEMP: 68; Dallas DFW LGT RAIN 70 66 87 S16 29.91F 6HR MIN TEMP: 66; 6HR MAX TEMP: 71; 6HR PCP: 0.03; Dallas Love LGT RAIN 69 66 90 S9 29.93S FOG 6HR MIN TEMP: 64; 6HR MAX TEMP: 71; 6HR PCP: 0.43; Philladelphia FAIR 63 55 75 W13 30.33F 6HR MIN TEMP: 51; 6HR MAX TEMP: 63; 6HR PCP: TRACE; Wash National FAIR 71 58 63 S13 30.32F 6HR MIN TEMP: 53; 6HR MAX TEMP: 72; Baltimore FAIR 73 58 59 S12G20 30.30F 6HR MIN TEMP: 52; 6HR MAX TEMP: 73; Miami PTSUNNY 84 71 65 E16G24 30.30F 6HR MIN TEMP: 73; 6HR MAX TEMP: 84; Detroit LGT RAIN 62 59 90 SW21 30.00S 6HR MIN TEMP: 52; 6HR MAX TEMP: 62; 6HR PCP: 0.15; Newark PTSUNNY 62 53 72 SW15 30.30F 6HR MIN TEMP: 49; 6HR MAX TEMP: 62; Laguardia PTSUNNY 60 51 72 SW12 30.29F 6HR MIN TEMP: 51; 6HR MAX TEMP: 60; 6HR PCP: TRACE; J F K PTSUNNY 60 54 80 SW15 30.31F 6HR MIN TEMP: 45; 6HR MAX TEMP: 60; 6HR PCP: TRACE; Boston Logan FAIR 65 53 65 SW13G24 30.20F 6HR MIN TEMP: 51; 6HR MAX TEMP: 65; Ft. Lauderdale PTSUNNY 81 74 79 E17 30.29F 6HR MIN TEMP: 75; 6HR MAX TEMP: 82; 6HR PCP: TRACE; Chicago O`Hare CLOUDY 65 58 78 S23G32 29.82F 6HR MIN TEMP: 58; 6HR MAX TEMP: 65; 6HR PCP: 0.44; Chicago Midway CLOUDY 66 61 84 S16G29 29.84F 6HR MIN TEMP: 58; 6HR MAX TEMP: 66; 6HR PCP: 0.21; Houston Bush CLOUDY 79 69 71 S15G30 30.01F 6HR MIN TEMP: 71; 6HR MAX TEMP: 79; Houston Hobby CLOUDY 75 71 87 SE16G26 30.01F 6HR MIN TEMP: 71; 6HR MAX TEMP: 76; Nashville CLOUDY 75 58 55 SW18G32 30.22F 6HR MIN TEMP: 63; 6HR MAX TEMP: 76; Atlanta PTSUNNY 71 65 81 VRB6 30.37F 6HR MIN TEMP: 60; 6HR MAX TEMP: 71; 6HR PCP: TRACE; $$ GAZ044-118-TXZ119-213-NCZ071-DCZ001-MDZ014-506-PAZ021-071-NJZ106- NYZ176-178-MAZ106-OHZ011-021-055-MIZ076-KYZ091-ILZ014-INZ047- MNZ060-ONZ431-201900- ...Gateway Observations for Savannah International... CITY SKY/WX TMP DP RH WIND PRES REMARKS Savannah Arpt PTSUNNY 79 63 57 SE14 30.39F 6HR MIN TEMP: 61; 6HR MAX TEMP: 82; Atlanta PTSUNNY 71 65 81 VRB6 30.37F 6HR MIN TEMP: 60; 6HR MAX TEMP: 71; 6HR PCP: TRACE; Charlotte CLOUDY 67 64 90 S8 30.43F 6HR MIN TEMP: 55; 6HR MAX TEMP: 68; Dallas DFW LGT RAIN 70 66 87 S16 29.91F 6HR MIN TEMP: 66; 6HR MAX TEMP: 71; 6HR PCP: 0.03; Houston Bush CLOUDY 79 69 71 S15G30 30.01F 6HR MIN TEMP: 71; 6HR MAX TEMP: 79; Wash National FAIR 71 58 63 S13 30.32F 6HR MIN TEMP: 53; 6HR MAX TEMP: 72; Wash Dulles FAIR 74 58 57 S20G28 30.30F 6HR MIN TEMP: 51; 6HR MAX TEMP: 74; Baltimore FAIR 73 58 59 S12G20 30.30F 6HR MIN TEMP: 52; 6HR MAX TEMP: 73; Philadelphia FAIR 63 55 75 W13 30.33F 6HR MIN TEMP: 51; 6HR MAX TEMP: 63; 6HR PCP: TRACE; Newark PTSUNNY 62 53 72 SW15 30.30F 6HR MIN TEMP: 49; 6HR MAX TEMP: 62; Laguardia PTSUNNY 60 51 72 SW12 30.29F 6HR MIN TEMP: 51; 6HR MAX TEMP: 60; 6HR PCP: TRACE; J F K PTSUNNY 60 54 80 SW15 30.31F 6HR MIN TEMP: 45; 6HR MAX TEMP: 60; 6HR PCP: TRACE; Boston FAIR 65 53 65 SW13G24 30.20F 6HR MIN TEMP: 51; 6HR MAX TEMP: 65; Pittsburg CLOUDY 74 53 48 SW13G23 30.17F 6HR MIN TEMP: 60; 6HR MAX TEMP: 74; Akron PTSUNNY 70 57 63 SW22G32 30.13F 6HR MIN TEMP: 61; 6HR MAX TEMP: 70; Cleveland LGT RAIN 67 59 75 SW14G24 30.13R 6HR MIN TEMP: 63; 6HR MAX TEMP: 70; 6HR PCP: 0.01; Cincinnati PTSUNNY 76 57 51 SW21G31 30.13F 6HR MIN TEMP: 63; 6HR MAX TEMP: 76; Columbus PTSUNNY 73 56 55 SW26G33 30.13F Detroit LGT RAIN 62 59 90 SW21 30.00S 6HR MIN TEMP: 52; 6HR MAX TEMP: 62; 6HR PCP: 0.15; Chicago O`Hare CLOUDY 65 58 78 S23G32 29.82F 6HR MIN TEMP: 58; 6HR MAX TEMP: 65; 6HR PCP: 0.44; Minneapolis CLOUDY 19 15 84 W12 29.96R WCI 7 6HR MIN TEMP: 18; 6HR MAX TEMP: 20; 6HR PCP: TRACE; Indianapolis PTSUNNY 73 56 54 SW32G40 30.04S 6HR MIN TEMP: 65; 6HR MAX TEMP: 74; 6HR PCP: TRACE; Toronto Canada NOT AVBL $$

USA.gov is the U.S. government's official web portal to all federal, state and local government web resources and services.